Regional Weather Roundup
Issued by NWS

Home | Current Version | Previous Version | Text Only | Print | Product List | Glossary Off
Versions: 1 2 3 4 5 6 7 8 9 10 11 12 13 14 15 16 17 18 19 20 21 22 23 24 25 26 27 28 29 30 31 32 33 34 35 36 37 38 39 40 41 42 43 44 45 46 47 48 49 50

000
ASUS43 KLMK 261810
RWRKY
NATIONAL WEATHER SERVICE LOUISVILLE KY
100 PM EST WED NOV 26 2014

NOTE "FAIR" INDICATES FEW OR NO CLOUDS BELOW 12,000 FEET
WITH NO SIGNIFICANT WEATHER AND/OR OBSTRUCTIONS TO VISIBILITY.

KYZ001>023-026-027-061>063-070>075-261900-
WESTERN AND SOUTH CENTRAL KENTUCKY

CITY           SKY/WX    TMP DP  RH WIND       PRES   REMARKS
PADUCAH        CLOUDY    42  29  59 SE10      30.04F
HENDERSON      FAIR      39  27  60 SE6       30.08F WCI  35
OWENSBORO      SUNNY     37  28  70 S5        30.10F WCI  33
HOPKINSVILLE   SUNNY     44  26  48 E1        30.07F
BOWLING GREEN  SUNNY     42  27  55 S5        30.11F
GLASGOW        SUNNY     43  30  60 W5        30.10F
$$

KYZ024-025-028>034-038-045-046-053-261900-
NORTH CENTRAL KENTUCKY

CITY           SKY/WX    TMP DP  RH WIND       PRES   REMARKS
LOUISVILLE/SDF MOSUNNY   42  29  59 VRB3      30.09F
LOUISVILLE/LOU PTSUNNY   41  30  65 SW3       30.10F
FORT KNOX      MOSUNNY   42  30  61 VRB5      30.07F
$$

KYZ035>037-039>044-047>052-055>060-089>105-261900-
NORTHEAST KENTUCKY

CITY           SKY/WX    TMP DP  RH WIND       PRES   REMARKS
LEXINGTON      PTSUNNY   43  31  62 CALM      30.06F
COVINGTON      CLOUDY    36  27  69 NE3       30.07F
FRANKFORT      SUNNY     41  29  62 VRB3      30.06F
$$

KYZ054-064>069-076>088-106>120-261900-
SOUTHEAST KENTUCKY

CITY           SKY/WX    TMP DP  RH WIND       PRES   REMARKS
JACKSON        MOSUNNY   46  29  51 VRB3      30.02F
LONDON         SUNNY     46  28  49 SW8       30.03F
SOMERSET       SUNNY     43  28  56 SW3       30.07F
MIDDLESBORO    NOT AVBL
MONTICELLO     CLEAR     47  28  47 SW6       30.08F
$$




USA.gov is the U.S. government's official web portal to all federal, state and local government web resources and services.